Weather History for Atlantic City, NJ

Change the Weather History Date:

Thursday, October 11, 2012

  Actual Average Record
Temperature  
Mean Temperature 52 °F 58 °F  
Max Temperature 61 °F 68 °F 84 °F (1904)
Min Temperature 43 °F 47 °F 30 °F (1964)
Degree Days  
Heating Degree Days 13 8  
Month to date heating degree days 67 73  
Since 1 July heating degree days 115 135  
Cooling Degree Days 0 1  
Month to date cooling degree days 27 12  
Year to date cooling degree days 1214 1046  
Growing Degree Days 2 (Base 50)    
Moisture  
Dew Point 36 °F    
Average Humidity 58    
Maximum Humidity 83    
Minimum Humidity 32    
Precipitation  
Precipitation 0.00 in 0.11 in 1.54 in (2013)
Month to date precipitation 1.40 1.21  
Year to date precipitation 33.42 32.58  
Snow  
Snow 0.00 in 0.00 in 0.00 in (1903)
Month to date snowfall 0.0 0.0  
Since 1 July snowfall 0.0 0.0  
Since 1 September snowfall 0.0 0.0  
Snow Depth 0.00 in    
Sea Level Pressure  
Sea Level Pressure 30.18 in    
Wind  
Wind Speed 7 mph (West)    
Max Wind Speed 21 mph    
Max Gust Speed 25 mph    
Visibility 10 miles    
Events      
T = Trace of Precipitation, MM = Missing Value Source: NWS Daily Summary

Daily Weather History Graph

Daily Weather History Graph

Search for Another Location

Airport:

Trip Planner

Search our weather history database for the weather conditions in past years. The results will help you decide how hot, cold, wet, or windy it might be!

Date:

Astronomy

Oct. 11, 2012 Rise Set
Actual Time 7:04 AM EDT 6:24 PM EDT
Civil Twilight 6:37 AM EDT 6:51 PM EDT
Nautical Twilight 6:06 AM EDT 7:22 PM EDT
Astronomical Twilight 5:35 AM EDT 7:53 PM EDT
Moon 2:41 AM EDT (10/11) 3:58 PM EDT (10/11)
Length of Visible Light 12h 13m
Length of Day
11h 19m
Waning Crescent, 18% of the Moon is Illuminated
Oct 11
Waning Crescent
Oct 15
New
Oct 21
First Quarter
Oct 29
Full
Nov 6
Last Quarter

Hourly Weather History & Observations

Time (EDT) Temp. Windchill Dew Point Humidity Pressure Visibility Wind Dir Wind Speed Gust Speed Precip Events Conditions
12:54 AM 51.1 °F - 39.9 °F 66% 30.05 in 10.0 mi WNW 5.8 mph - N/A   Clear
1:54 AM 48.9 °F - 39.9 °F 71% 30.08 in 10.0 mi WNW 8.1 mph - N/A   Clear
2:54 AM 46.0 °F 42.5 °F 39.0 °F 76% 30.09 in 10.0 mi WNW 6.9 mph - N/A   Clear
3:54 AM 45.0 °F 42.6 °F 37.9 °F 76% 30.10 in 10.0 mi West 4.6 mph - N/A   Clear
4:54 AM 44.1 °F 40.1 °F 37.0 °F 76% 30.14 in 10.0 mi WNW 6.9 mph - N/A   Clear
5:54 AM 44.1 °F 40.1 °F 37.0 °F 76% 30.17 in 10.0 mi WNW 6.9 mph - N/A   Clear
6:54 AM 45.0 °F 41.2 °F 36.0 °F 71% 30.19 in 10.0 mi West 6.9 mph - N/A   Clear
7:54 AM 45.0 °F 40.1 °F 35.1 °F 68% 30.22 in 10.0 mi WNW 9.2 mph - N/A   Clear
8:54 AM 50.0 °F - 34.0 °F 54% 30.24 in 10.0 mi NW 10.4 mph - N/A   Clear
10:54 AM 54.0 °F - 30.0 °F 40% 30.25 in 10.0 mi NW 12.7 mph 24.2 mph N/A   Clear
11:54 AM 55.9 °F - 32.0 °F 40% 30.24 in 10.0 mi North 8.1 mph - N/A   Clear
12:54 PM 57.9 °F - 30.9 °F 36% 30.22 in 10.0 mi WNW 10.4 mph - N/A   Clear
1:54 PM 59.0 °F - 32.0 °F 36% 30.21 in 10.0 mi Variable 5.8 mph - N/A   Clear
2:54 PM 60.1 °F - 30.0 °F 32% 30.22 in 10.0 mi WSW 6.9 mph - N/A   Clear
3:54 PM 61.0 °F - 32.0 °F 34% 30.20 in 10.0 mi WSW 8.1 mph - N/A   Clear
4:54 PM 60.1 °F - 33.1 °F 36% 30.19 in 10.0 mi Variable 5.8 mph - N/A   Clear
5:54 PM 57.9 °F - 35.1 °F 42% 30.20 in 10.0 mi West 4.6 mph - N/A   Clear
6:54 PM 53.1 °F - 37.0 °F 55% 30.20 in 10.0 mi SW 4.6 mph - N/A   Clear
7:54 PM 50.0 °F - 37.0 °F 61% 30.21 in 10.0 mi SW 4.6 mph - N/A   Clear
8:54 PM 50.0 °F - 39.0 °F 66% 30.22 in 10.0 mi SW 4.6 mph - N/A   Clear
9:54 PM 46.9 °F - 39.0 °F 74% 30.22 in 10.0 mi West 3.5 mph - N/A   Clear
10:54 PM 45.0 °F - 39.0 °F 80% 30.22 in 10.0 mi Calm Calm - N/A   Clear
11:54 PM 46.0 °F 44.8 °F 37.9 °F 73% 30.21 in 10.0 mi SSW 3.5 mph - N/A   Clear